找回密码
 立即注册

QQ登录

只需一步,快速开始

收藏本版 |订阅

蓝光原盘下载 今日: 1 |主题: 5232|排名: 6 

作者 回复/查看 最后发表
全局置顶 隐藏置顶帖 [公告] 迅雷无法下载的解决办法【V3】  ...23 admin 2018-7-24 2424478 wanlibeer 前天 15:42
全局置顶 隐藏置顶帖 [公告] 迅雷 应版权方要求,文件无法下载的解决办法 attach_img admin 2018-7-24 923141 Evgenyhvb 2021-10-11 15:05
      
[惊悚片] 屏住呼吸2/别呼吸2 Dont.Breathe.2.2021.1080p.BluRay.AVC.DTS-HD.MA.5.1-FGT 28.35GB attachment New cool 1 小时前 011 cool 1 小时前
[动作片] 沙丘/星际奇兵 Dune.1984.BONUS.DISC.1080p.BluRay.AVC.LPCM.2.0-UNTOUCHED 43.99GB attachment New cool 3 天前 133 jcs 前天 14:31
[科幻片] 时栈中的指针/时光的针脚 Needle.in.a.Timestack.2021.1080p.BluRay.AVC.DTS-HD.MA.5.1-FGT 39.69GB attachment New cool 4 天前 033 cool 4 天前
[动作片] 沙丘/星际奇兵 Dune.1984.REMASTERED.1080p.BluRay.AVC.DTS-HD.MA.5.1-UNTOUCHED 46.12GB attachment New cool 5 天前 030 cool 5 天前
[剧情片] 乔·贝尔/好样的乔·贝尔 Joe.Bell.2020.1080p.BluRay.AVC.DTS-HD.MA.5.1-iNTEGRUM 22.58GB attachment New cool 5 天前 026 cool 5 天前
[其他] 活死人之夜/活死人之夜动画版 Night.of.the.Animated.Dead.2021.1080p.BluRay.AVC.DTS-HD.MA.5.1-PENTAGON 12.63GB attachment New cool 6 天前 133 jcs 前天 14:32
[其他] 惊声尖叫/夺命狂呼 Scream.1996.REMASTERED.1080p.BluRay.AVC.DTS-HD.MA.5.1-SCARYMOVIE 40.97GB attachment cool 2021-10-19 039 cool 2021-10-19 09:28
[动作片] 门徒 The.Protege.2021.1080p.US.BluRay.AVC.TrueHD.7.1.Atmos-FGT 45.29GB attachment cool 2021-10-19 136 乌力吉 3 天前
[动作片] 猎人 Hunters.2021.1080p.BluRay.AVC.DTS-HD.MA.5.1-FGT 27.13GB attachment cool 2021-10-19 048 cool 2021-10-19 09:14
[动作片] 最后一个/最后一个男人 Last.Man.Down.2021.1080p.BluRay.AVC.DTS-HD.MA.5.1-FGT 21.38GB attachment cool 2021-10-19 032 cool 2021-10-19 09:14
[惊悚片] 月光光心慌慌5 Halloween.5.The.Revenge.of.Michael.Myers.1989.REMASTERED.1080p.BluRay.AVC.TrueHD.7.1.Atmos-FGT 41.10GB attachment cool 2021-10-16 048 cool 2021-10-16 09:19
[动作片] 时间机器 The.Time.Machine.2002.1080p.BluRay.AVC.TrueHD.5.1-OPTICAL 25.63GB attachment cool 2021-10-16 247 yi188 2021-10-16 10:19
[动作片] 生存主义者 The.Survivalist.2021.1080p.BluRay.AVC.DTS-HD.MA.5.1-FGT 21.60GB attachment cool 2021-10-16 040 cool 2021-10-16 09:14
[科幻片] 上升 Ascendant.2021.1080p.BluRay.AVC.DTS-HD.MA.5.1-FGT 34.10GB attachment cool 2021-10-14 071 cool 2021-10-14 09:17
[动作片] 斗破乱世情 Legend.of.Lv.Bu.2020.CHINESE.1080p.BluRay.AVC.DTS-HD.MA.5.1-FGT 21.43GB attachment cool 2021-10-14 059 cool 2021-10-14 09:14
[惊悚片] 断电惊魂/电源 The.Power.2021.1080p.BluRay.AVC.DTS-HD.MA.5.1-INCUBO 21.52GB attachment cool 2021-10-12 052 cool 2021-10-12 09:19
[喜剧片] 回归之路/复出痕迹 The.Comeback.Trail.2020.1080p.BluRay.AVC.DTS-HD.MA.5.1-FGT 20.69GB attachment cool 2021-10-12 054 cool 2021-10-12 09:18
[剧情片] 裸奇点/裸露奇点 Naked.Singularity.2021.1080p.BluRay.AVC.DTS-HD.MA.5.1-iNTEGRUM 23.09GB attachment cool 2021-10-12 075 cool 2021-10-12 09:13
[剧情片] 绿衣骑士/绿骑士 The.Green.Knight.2021.1080p.BluRay.AVC.TrueHD.7.1.Atmos-FGT 46.37GB attachment cool 2021-10-12 044 cool 2021-10-12 09:13
[惊悚片] 化装舞会 Masquerade.2021.1080p.BluRay.AVC.DTS-HD.MA.5.1-FGT 24.59GB attachment cool 2021-10-8 063 cool 2021-10-8 09:19
[喜剧片] 空中大灌篮:新传奇 Space.Jam.A.New.Legacy.2021.1080p.BluRay.AVC.TrueHD.7.1.Atmos-FGT 37.21GB attachment cool 2021-10-2 160 季节空间 2021-10-12 07:33
[剧情片] 猪/寻猪之旅 Pig.2021.1080p.BluRay.AVC.DTS-HD.MA.5.1-ESiR 23.75GB attachment cool 2021-10-1 050 cool 2021-10-1 09:13
[喜剧片] 丛林奇航/丛林巡航 Jungle.Cruise.2021.1080p.BluRay.AVC.DTS-HD.MA.7.1-ESiR 42.86GB attachment cool 2021-9-30 192 季节空间 2021-10-12 07:34
[其他] 密室逃生2 Escape.Room.Tournament.Of.Champions.2021.2in1.1080p.BluRay.AVC.DTS-HD.MA.5.1-BAKED 29.66GB attachment cool 2021-9-29 194 季节空间 2021-10-12 07:34
[科幻片] 人类清除计划5/人类清除计划:自由永恒 The.Forever.Purge.2021.1080p.BluRay.AVC.TrueHD.7.1.Atmos-FGT 35.04GB attachment cool 2021-9-29 070 cool 2021-9-29 09:17
[剧情片] 冰路营救 The.Ice.Road.2021.1080p.BluRay.AVC.TrueHD.5.1-FGT 22.16GB attachment cool 2021-9-29 275 季节空间 2021-10-12 07:35
[剧情片] 侵犯/触犯 Violation.2020.1080p.BluRay.AVC.DTS-HD.MA.5.1-FGT 19.59GB attachment cool 2021-9-29 151 季节空间 2021-10-12 07:35
[喜剧片] 失控玩家/分身人 Free.Guy.2021.1080p.BluRay.AVC.DTS-HD.MA.7.1-BDA 43.21GB attachment cool 2021-9-25 5124 ran960630 2021-10-7 04:24
[其他] 不死劫/惊心动魄 Unbreakable.2000.REMASTERED.1080p.BluRay.AVC.DTS-HD.MA.5.1-PCH 42.49GB attachment cool 2021-9-19 186 季节空间 2021-10-12 07:35
[动作片] 黑寡妇 Black.Widow.2021.IMAX.1080p.3D.BluRay.AVC.DTS-HD.MA.7.1-NOGRP 44.23GB attachment cool 2021-9-19 4165 jcs 前天 14:27
[喜剧片] 庄园夫人/女领主 Lady.of.the.Manor.2021.1080p.BluRay.AVC.DTS-HD.MA.5.1-FGT 37.11GB attachment cool 2021-9-17 0110 cool 2021-9-17 09:18
[其他] 接住子弹 Catch.the.Bullet.2021.1080p.BluRay.AVC.DTS-HD.MA.5.1-iNTEGRUM 22.48GB attachment cool 2021-9-16 092 cool 2021-9-16 09:28
[剧情片] 左拉 Zola.2020.1080p.BluRay.AVC.DTS-HD.MA.5.1-iNTEGRUM 30.67GB attachment cool 2021-9-16 092 cool 2021-9-16 09:13
[喜剧片] 宝贝老板2/宝贝老板:家大业大 The.Boss.Baby.Family.Business.2021.1080p.BluRay.AVC.TrueHD.7.1.Atmos-iNTEGRUM 38.05GB attachment cool 2021-9-15 086 cool 2021-9-15 09:18
[其他] 跳跃的原因 The.Reason.I.Jump.2020.1080p.BluRay.AVC.TrueHD.7.1.Atmos-INCUBO 42.46GB attachment cool 2021-9-14 076 cool 2021-9-14 09:28
[惊悚片] 大浪白鲨/白色巨鯊 Great.White.2021.1080p.US.BluRay.AVC.DTS-HD.MA.5.1-iNTEGRUM 19.35GB attachment cool 2021-9-14 1102 恭恭敬敬 2021-9-27 22:30
[剧情片] 爱的后事/當愛離開時 After.Love.2020.1080p.BluRay.AVC.DTS-HD.MA.5.1-INCUBO 43.98GB attachment cool 2021-9-14 0112 cool 2021-9-14 09:13
[喜剧片] 进化危机/地球再发育 Evolution.2001.1080p.BluRay.AVC.DTS-HD.MA.5.1-GMB 40.98GB attachment cool 2021-9-13 0102 cool 2021-9-13 09:18
[喜剧片] 然后怎样 How.It.Ends.2021.1080p.BluRay.AVC.DTS-HD.MA.5.1-iNTEGRUM 20.32GB attachment cool 2021-9-13 081 cool 2021-9-13 09:18
[喜剧片] 星际旅行4:抢救未来 Star.Trek.IV.The.Voyage.Home.1986.REMASTERED.1080p.BluRay.AVC.TrueHD.7.1-OLDHAM 44.42GB attachment cool 2021-9-12 096 cool 2021-9-12 09:18
[其他] 觉醒 Awaken.2018.1080p.BluRay.AVC.DTS-HR.7.1-UNTOUCHED 22.58GB attachment cool 2021-9-11 190 蜕变的蝴蝶 2021-9-26 07:52
[动作片] 黑寡妇 Black.Widow.2021.1080p.BluRay.AVC.DTS-HD.MA.7.1-PCH 41.88GB attachment cool 2021-9-11 3122 yyscg 2021-10-2 10:22
[剧情片] 小镇缉凶/迷雾中的小镇 The.Dry.2020.1080p.BluRay.AVC.DTS-HD.MA.5.1-BAKED 28.12GB attachment cool 2021-9-11 078 cool 2021-9-11 09:13
[科幻片] 星际旅行1:无限太空 Star.Trek.The.Motion.Picture.1979.REMASTERED.1080p.BluRay.AVC.TrueHD.7.1-OLDHAM 44.34GB attachment cool 2021-9-10 078 cool 2021-9-10 09:17
[动作片] 星际旅行2:可汗怒吼 Star.Trek.II.The.Wrath.of.Khan.1982.REMASTERED.2in1.1080p.BluRay.AVC.TrueHD.7.1-OLDHAM 43.90GB attachment cool 2021-9-10 078 cool 2021-9-10 09:14
[动作片] 星际旅行3:石破天惊 Star.Trek.III.The.Search.for.Spock.1984.REMASTERED.1080p.BluRay.AVC.TrueHD.7.1-OLDHAM 44.50GB attachment cool 2021-9-10 163 wnjlw0 2021-10-2 04:49
[剧情片] 孤儿橄榄球队 12.Mighty.Orphans.2021.1080p.BluRay.AVC.DTS-HD.MA.5.1-iNTEGRUM 36.11GB attachment cool 2021-9-3 084 cool 2021-9-3 09:13
[剧情片] 通道 The.Gateway.2021.1080p.BluRay.AVC.DTS-HD.MA.5.1-FGT 22.25GB attachment cool 2021-9-3 095 cool 2021-9-3 09:13
[动作片] 真人快打传奇:王国之战 Mortal.Kombat.Legends.Battle.of.the.Realms.2021.1080p.BluRay.AVC.DTS-HD.MA.5.1-iNTEGRUM 15.02GB attachment cool 2021-9-1 0114 cool 2021-9-1 09:14
[动作片] 速度与激情9/F9狂野时速 Fast.and.Furious.F9.The.Fast.Saga.2021.DC.1080p.BluRay.AVC.TrueHD.7.1.Atmos-BDA 38.83GB attachment cool 2021-9-1 7205 jiahongqq 昨天 00:07
下一页 »

快速发帖

还可输入 255 个字符
您需要登录后才可以发帖 登录 | 立即注册

本版积分规则

QQ|Archiver|手机版|小黑屋|蓝光电影网

GMT+8, 2021-10-27 10:47 , Processed in 0.045986 second(s), 15 queries .

Powered by Discuz! X3.4

Copyright © 2001-2020, Tencent Cloud.

返回顶部 返回版块